Location: ??????
(38.3184°N, 23.6932°E)
Time: 18:37:31
(UTC+00:00)

Cosmos 1727 Rocket - Pass Details

Date: 06 June 2022
Orbit: 961 x 996 km, 82.9° (Epoch: 28 June)

Event Time Altitude Azimuth Distance (km) Brightness Sun altitude
Rises 02:20:57 0° 177° (S) 3,681 6.7 -7.5°
Reaches altitude 10° 02:23:28 10° 175° (S) 2,740 6.1 -7.2°
Maximum altitude 02:29:42 68° 93° (E) 1,063 4.5 -6.2°
Drops below altitude 10° 02:36:01 10° 12° (NNE) 2,770 7.1 -5.1°
Sets 02:38:34 0° 10° (N) 3,723 7.8 -4.7°
